Regional Weather Roundup
Issued by NWS

Current Version | Previous Version | Text Only | Print | Product List | Glossary On
Versions: 1 2 3 4 5 6 7 8 9 10 11 12 13 14 15 16 17 18 19 20 21 22 23 24 25 26 27
000
ASPQ40 PGUM 211512
RWRPQ
WEATHER ROUNDUP FOR THE MARIANAS AND MICRONESIA
NATIONAL WEATHER SERVICE TIYAN GU
100 AM GSST TUE APR 22 2014

GUZ001>004-211600-
MARIANA ISLANDS-

CITY           SKY/WX    TMP DP  RH WIND       PRES   REMARKS
GUAM AIRPORT   PTCLDY    82  77  83 E10       29.91F HX  91
ANDERSEN AFB   CLOUDY    81  75  83 E15       29.91F
ROTA AIRPORT   NOT AVBL
TINIAN AP      NOT AVBL
SAIPAN AP      PTCLDY    81  75  83 E10       29.91F

$$

PMZ161-211600-
REPUBLIC OF PALAU-

CITY           SKY/WX    TMP DP  RH WIND       PRES   REMARKS
KOROR AP       MOCLDY    77  75  94 CALM      29.85S
KOROR WSO      PTCLDY    81  79  94 CALM      29.86S

$$

PMZ171>174-211600-
FEDERATED STATES OF MICRONESIA-

CITY           SKY/WX    TMP DP  RH WIND       PRES   REMARKS
YAP AIRPORT    PTCLDY    82  77  83 SE12      29.85S HX  91
CHUUK AP       NOT AVBL
POHNPEI AP     NOT AVBL
POHNPEI WSO    CLOUDY    82  77  83 E5        29.84F HX  91
KOSRAE AP      NOT AVBL

$$

PMZ181-211600-
REPUBLIC OF THE MARSHALL ISLANDS-

CITY           SKY/WX    TMP DP  RH WIND       PRES   REMARKS
KWAJALEIN AP   LGT RAIN  79  73  83 E20       29.85F
MAJURO AP      NOT AVBL
MAJURO WSO     CLOUDY    79  75  89 E14       29.85F

$$




USA.gov is the U.S. government's official web portal to all federal, state and local government web resources and services.